User: anonymous   Login
Location: Whitehorse
(60.7170°N, 135.0500°W)
Time: 05:09:21
(UTC-07:00)
Language:

Cosmos 2219 Rocket - Orbit

View from above orbital plane
View from above orbital plane
View from above satellite
View from above satellite

Ground track
Ground track

The orbit data is extracted from the following two-line orbital elements,

1 22220U 92076B   15242.76420845  .00000147  00000-0  98203-4 0  9990
2 22220 071.0020 000.9353 0013559 202.2322 309.8330 14.16373811177822
Epoch (UTC): 30 August 2015 18:20:27
Eccentricity: 0.0013559
inclination: 71.0020°
perigee height: 828 km
apogee height: 847 km
right ascension of ascending node: 0.9353°
argument of perigee: 202.2322°
revolutions per day: 14.16373811
mean anomaly at epoch: 309.8330°
orbit number at epoch: 17782

The dashed part of the orbit path shows where the satellite is in the earth's shadow,  

DLR